Perth, Australia

6:48 AM AWST on September 22, 2017 (GMT +0800)
Perth International

Weather History for YPPH - November, 2013

Change the Weather History Date:

Saturday, November 16, 2013

  Actual Average Record
Temperature  
Mean Temperature 84 °F -  
Max Temperature 99 °F 81 °F 99 °F (2013)
Min Temperature 66 °F 57 °F 50 °F (2011)
Cooling Degree Days 18    
Growing Degree Days 34 (Base 50)    
Moisture  
Dew Point 46 °F    
Average Humidity 31    
Maximum Humidity 68    
Minimum Humidity 10    
Precipitation  
Precipitation 0.00 in 0.02 in - ()
Sea Level Pressure  
Sea Level Pressure 29.82 in    
Wind  
Wind Speed 18 mph ()    
Max Wind Speed 28 mph    
Max Gust Speed 40 mph    
Visibility 19.0 miles    
Events      
Averages and records for this station are not official NWS values.
T = Trace of Precipitation, MM = Missing Value Source: Averaged Metar Reports

Daily Weather History Graph

Daily Weather History Graph

Search for Another Location

Airport or City:

Trip Planner

Search our weather history database for the weather conditions in past years. The results will help you decide how hot, cold, wet, or windy it might be!

Date:

Astronomy

Nov. 16, 2013 Rise Set
Actual Time 5:07 AM AWST 6:54 PM AWST
Civil Twilight 4:41 AM AWST 7:21 PM AWST
Nautical Twilight 4:08 AM AWST 7:53 PM AWST
Astronomical Twilight 3:34 AM AWST 8:27 PM AWST
Moon 5:42 PM AWST (11/16) 4:04 AM AWST (11/16)
Length of Visible Light 14h 39m
Length of Day
13h 46m
Waxing Gibbous, 98% of the Moon is Illuminated
Nov 16
Waxing Gibbous
Nov 17
Full
Nov 26
Last Quarter
Dec 3
New
Dec 9
First Quarter

Hourly Weather History & Observations

Time (AWST) Temp. Heat Index Dew Point Humidity Pressure Visibility Wind Dir Wind Speed Gust Speed Precip Events Conditions
12:00 AM 78 °F - 32 °F 10% 29.86 in 19 mi East 26.5 mph - -   Partly Cloudy
12:00 AM 77.0 °F - 32.0 °F 19% 29.83 in - East 26.5 mph 38.0 mph N/A   Clear
12:30 AM 77.0 °F - 33.8 °F 21% 29.83 in - East 25.3 mph - N/A   Clear
12:41 AM 77.0 °F - 33.8 °F 21% 29.83 in - East 25.3 mph 36.8 mph N/A   Clear
1:00 AM 77.0 °F - 33.8 °F 21% 29.83 in - East 25.3 mph - N/A   Clear
1:08 AM 75.2 °F - 33.8 °F 22% 29.83 in - East 26.5 mph 38.0 mph N/A   Clear
1:30 AM 75.2 °F - 37.4 °F 25% 29.83 in - East 27.6 mph - N/A   Clear
1:32 AM 75.2 °F - 37.4 °F 25% 29.83 in - East 27.6 mph 40.3 mph N/A   Clear
2:00 AM 73 °F - 40 °F 20% 29.82 in - East 27.6 mph - -  
2:00 AM 73.4 °F - 41.0 °F 31% 29.80 in - East 27.6 mph 39.1 mph N/A   Clear
2:35 AM 71.6 °F - 42.8 °F 35% 29.83 in - East 23.0 mph 34.5 mph N/A   Clear
3:00 AM 71 °F - 43 °F 26% 29.83 in 19 mi East 25.3 mph - -   Partly Cloudy
3:04 AM 71.6 °F - 42.8 °F 35% 29.83 in - East 24.2 mph 35.7 mph N/A   Clear
3:30 AM 69.8 °F - 42.8 °F 38% 29.80 in - East 24.2 mph 35.7 mph N/A   Clear
4:00 AM 69.8 °F - 44.6 °F 40% 29.83 in - ENE 24.2 mph - N/A   Clear
4:27 AM 69.8 °F - 44.6 °F 40% 29.83 in - ENE 20.7 mph 32.2 mph N/A   Clear
4:30 AM 69.8 °F - 44.6 °F 40% 29.83 in - ENE 21.9 mph - N/A   Clear
5:00 AM 69 °F - 44 °F 29% 29.83 in - ENE 19.6 mph - -  
5:00 AM 69.8 °F - 44.6 °F 40% 29.83 in - ENE 19.6 mph - N/A   Clear
5:28 AM 68.0 °F - 42.8 °F 40% 29.83 in - ENE 19.6 mph 31.1 mph N/A   Clear
5:30 AM 68.0 °F - 42.8 °F 40% 29.83 in - ENE 20.7 mph - N/A   Clear
6:00 AM 69 °F - 43 °F 28% 29.85 in 19 mi ENE 21.9 mph - -   Partly Cloudy
6:00 AM 69.8 °F - 42.8 °F 38% 29.83 in - ENE 21.9 mph - N/A   Clear
6:30 AM 69.8 °F - 44.6 °F 40% 29.86 in - ENE 19.6 mph - N/A   Clear
7:00 AM 71.6 °F - 44.6 °F 38% 29.86 in - ENE 15.0 mph - N/A   Clear
7:30 AM 75.2 °F - 44.6 °F 34% 29.86 in - ENE 17.3 mph - N/A   Clear
8:00 AM 77 °F - 47 °F 23% 29.87 in - ENE 18.4 mph - -  
8:00 AM 77.0 °F - 46.4 °F 34% 29.86 in - ENE 18.4 mph - N/A   Clear
8:30 AM 80.6 °F - 46.4 °F 30% 29.86 in - ENE 17.3 mph - N/A   Clear
9:00 AM 85 °F - 47 °F 17% 29.86 in 19 mi ENE 16.1 mph - -   Partly Cloudy
9:00 AM 84.2 °F - 48.2 °F 29% 29.86 in - ENE 16.1 mph - N/A   Clear
9:30 AM 87.8 °F - 44.6 °F 22% 29.86 in - NE 15.0 mph - N/A   Clear
10:00 AM 91.4 °F - 46.4 °F 21% 29.83 in - NE 15.0 mph - N/A   Clear
10:30 AM 93.2 °F - 42.8 °F 17% 29.83 in - NNE 13.8 mph - N/A   Clear
11:00 AM 94 °F - 44 °F 10% 29.83 in - NE 12.7 mph - -  
11:00 AM 95.0 °F - 44.6 °F 18% 29.83 in - NE 12.7 mph - N/A   Clear
11:30 AM 95.0 °F - 44.6 °F 18% 29.83 in - NNE 10.4 mph - N/A   Clear
12:00 PM 96 °F - 45 °F 10% 29.82 in 19 mi NNE 8.1 mph - -   Partly Cloudy
12:00 PM 96.8 °F - 44.6 °F 17% 29.80 in - ENE 12.7 mph - N/A   Clear
12:30 PM 96.8 °F - 42.8 °F 16% 29.80 in - NE 10.4 mph - N/A   Clear
1:00 PM 96.8 °F - 46.4 °F 18% 29.80 in - West 16.1 mph - N/A   Clear
1:30 PM 93.2 °F - 46.4 °F 20% 29.80 in - West 15.0 mph - N/A   Clear
2:00 PM 95 °F - 45 °F 10% 29.80 in - West 17.3 mph - -  
2:00 PM 95.0 °F - 44.6 °F 18% 29.80 in - West 17.3 mph - N/A   Clear
2:30 PM 93.2 °F - 46.4 °F 20% 29.77 in - West 13.8 mph - N/A   Clear
3:00 PM 92 °F - 48 °F 13% 29.80 in 19 mi WNW 17.3 mph - -   Partly Cloudy
3:00 PM 91.4 °F - 48.2 °F 23% 29.77 in - WNW 17.3 mph - N/A   Clear
3:30 PM 89.6 °F - 44.6 °F 21% 29.80 in - West 15.0 mph - N/A   Clear
4:00 PM 87.8 °F - 46.4 °F 24% 29.77 in - West 10.4 mph - N/A   Clear
4:30 PM 87.8 °F - 48.2 °F 25% 29.77 in - WSW 11.5 mph - N/A   Clear
5:00 PM 87 °F - 48 °F 16% 29.80 in - WSW 10.4 mph - -  
5:00 PM 87.8 °F - 48.2 °F 25% 29.80 in - WSW 10.4 mph - N/A   Clear
5:30 PM 86.0 °F - 50.0 °F 29% 29.80 in - South 5.8 mph - N/A   Clear
6:00 PM 85 °F - 51 °F 21% 29.81 in 19 mi West 8.1 mph - -   Partly Cloudy
6:00 PM 84.2 °F - 51.8 °F 33% 29.80 in - West 8.1 mph - N/A   Clear
6:30 PM 82.4 °F 81.7 °F 55.4 °F 39% 29.80 in - West 5.8 mph - N/A   Clear
7:00 PM 78.8 °F - 55.4 °F 44% 29.80 in - West 6.9 mph - N/A   Clear
7:30 PM 77.0 °F - 57.2 °F 50% 29.80 in - West 5.8 mph - N/A   Clear
8:00 PM 76 °F - 56 °F 40% 29.83 in - WNW 8.1 mph - -  
8:00 PM 77.0 °F - 57.2 °F 50% 29.83 in - WNW 8.1 mph - N/A   Clear
8:30 PM 71.6 °F - 57.2 °F 60% 29.83 in - NNW 5.8 mph - N/A   Clear
9:00 PM 72 °F - 58 °F 52% 29.85 in 19 mi NNE 6.9 mph - -   Partly Cloudy
9:00 PM 71.6 °F - 59.0 °F 64% 29.83 in - NNE 6.9 mph - N/A   Clear
9:30 PM 71.6 °F - 57.2 °F 60% 29.83 in - North 6.9 mph - N/A   Clear
10:00 PM 71.6 °F - 57.2 °F 60% 29.83 in - ENE 6.9 mph - N/A   Clear
10:30 PM 71.6 °F - 55.4 °F 57% 29.83 in - NE 5.8 mph - N/A   Clear
11:00 PM 69 °F - 55 °F 52% 29.85 in - NNE 5.8 mph - -  
11:00 PM 69.8 °F - 55.4 °F 60% 29.83 in - NNE 5.8 mph - N/A   Clear
11:30 PM 66.2 °F - 55.4 °F 68% 29.83 in - NNE 5.8 mph - N/A   Clear